Showing default

MSU ALTAIR, 61779

Orbit data source: Space-Track

MSU ALTAIR, 61779 is a payload satellite owned by MGU (CIS) in SSO that was launched on Mon, 04 Nov 2024 UTC via a SOYUZ-2-1B launch vehicle from the Vostochny Cosmodrome (VOSTO). Payload-class satellites include a variety of spacecraft equipped with specific instruments for various scientific and technological missions. These include communications satellites like Starlink; space stations such as the ISS; scientific satellites like the Hubble; Earth observation satellites from companies like Planet Labs, Umbra, and HawkEye 360; GPS; miniature CubeSats for education and research; and military/defense satellites.

Loading next visibility...
Identifier
61779, 2024-199AW
Orbit
SSO
Country
Flag of CISCIS
Related business
Manufacturer
NILAKT DOSAAF
Mission
Operational Amateur Science
Bus & Motor
CUBESAT 6U, Unknown motor
Mass
10 kg wet, 10 kg dry
Launch date (UTC)
2024-11-04 (2 years ago)
Launch vehicle
SOYUZ-2-1B
Launch site
Vostochny Cosmodrome (VOSTO)
Object type
Payload
Rocket body
Debris
Shape & HBR
Box, 0.2 m
Radar Cross Section
0.080 m², Medium (>0.1 m² and < 1m²)

Expand to show TLE details & history
Last TLE update: 9 hours ago

TLE from 9 hours ago
0 MSU ALTAIR
1 61779U 24199AW  26264.28361894  .00005946  00000-0  15782-3 0  9996
2 61779  97.2871 133.0330 0011087 327.8445  32.2123 15.38613794151882
Epoch: 2026-09-21T06:48Z
TLE epoch observation values (Epoch: 2026-09-21T06:48:24.676Z)
Latitude
-0.00004°
Longitude
30.76452°
Altitude
446.922 km
Speed
7.648 km/s
True Right ascension
08h 52m 07s
True Declination
0° 00' 00"
Sunlit
Object was in daylight at epoch
Visualization orbit readout
Latitude
Unknown
Longitude
Unknown
Altitude
Unknown
Speed
Unknown
Apparent Right ascension
Unknown
Apparent Declination
Unknown
Sunlit
N/A
Visualization observer readout
Local Sidereal Time
08:59:17
Azimuth
Unknown
Elevation
Unknown
Doppler factor
Unknown
Orbital elements
Apogee altitude
454.711 km
Perigee altitude
439.576 km
Semi-major axis
6,825.281 km
Eccentricity
0.00111
Inclination
97.2871°
RAAN
133.033°
Arg. of periapsis
327.8445°
True anomaly
32.2801°
Mean anomaly
32.2123°
Eccentric anomaly
32.24619°
Mean motion
3.84913 °/min
Orbital period
93.53 mins
BSTAR
0.00015782
Loading maneuver chart data...
Computing Atmospheric mass density...
Loading historical data...
Loading historical data...
Loading historical data...
Loading historical data...
Loading historical data...
Loading historical data...
Loading historical data...

Documentation

Showing up to 5 results
|